This is the latest recevied weather packets stored in our database for station/object KA3WVU. If no packets are shown the sender has not sent any weather packets the latest 10 day(s).
| Time | Temp. | Humidity | Pressure | Rain* | Wind** | Luminosity | Snow |
|---|---|---|---|---|---|---|---|
| 1777422688 | 8.33° C | 99% | 1014.9 hPa | 0 mm | - | 0 W/m² | - |
| 1777422384 | 8.33° C | 99% | 1014.8 hPa | 0 mm | - | 0 W/m² | - |
| 1777422079 | 8.33° C | 99% | 1014.6 hPa | 0 mm | - | 0 W/m² | - |
| 1777421778 | 8.33° C | 99% | 1014.8 hPa | 0 mm | - | 0 W/m² | - |
| 1777421474 | 8.33° C | 99% | 1014.8 hPa | 0 mm | - | 1 W/m² | - |
| 1777421170 | 8.33° C | 99% | 1014.3 hPa | 0 mm | - | 1 W/m² | - |
| 1777420867 | 8.33° C | 99% | 1014.4 hPa | 0 mm | - | 2 W/m² | - |
| 1777420563 | 8.33° C | 99% | 1014.4 hPa | 0 mm | - | 2 W/m² | - |
| 1777420258 | 8.33° C | 99% | 1014.4 hPa | 0 mm | - | 3 W/m² | - |
| 1777419954 | 8.33° C | 99% | 1014.4 hPa | 0 mm | - | 4 W/m² | - |
| 1777419652 | 8.33° C | 99% | 1014.4 hPa | 0 mm | - | 5 W/m² | - |
| 1777419350 | 8.89° C | 99% | 1014.4 hPa | 0 mm | - | 8 W/m² | - |
| 1777419049 | 8.89° C | 99% | 1014.5 hPa | 0 mm | - | 11 W/m² | - |
| 1777418748 | 8.89° C | 99% | 1014.6 hPa | 0 mm | - | 17 W/m² | - |
| 1777418445 | 8.89° C | 99% | 1014.9 hPa | 0 mm | - | 13 W/m² | - |
| 1777418141 | 8.89° C | 99% | 1014.8 hPa | 0 mm | - | 14 W/m² | - |
| 1777417838 | 8.89° C | 99% | 1014.8 hPa | 0 mm | - | 17 W/m² | - |
| 1777417538 | 8.89° C | 99% | 1014.9 hPa | 0 mm | - | 18 W/m² | - |
| 1777417235 | 8.89° C | 99% | 1015 hPa | 0 mm | - | 20 W/m² | - |
| 1777416931 | 8.89° C | 99% | 1015.1 hPa | 0 mm | - | 19 W/m² | - |
| 1777416626 | 8.89° C | 99% | 1015 hPa | 0 mm | - | 13 W/m² | - |
| 1777416322 | 8.89° C | 99% | 1015 hPa | 0 mm | - | 9 W/m² | - |
| 1777416021 | 8.89° C | 99% | 1015 hPa | 0 mm | - | 22 W/m² | - |
| 1777415717 | 8.89° C | 99% | 1015 hPa | 0 mm | - | 29 W/m² | - |
| 1777415414 | 8.89° C | 99% | 1015.2 hPa | 0 mm | - | 27 W/m² | - |
* Rain latest hour (hover to see other rain measurements)
** Current wind speed in m/s (hover to see current wind gust speed)